Location: Clover
(42.5131°N, 114.6874°W)
Time: 08:48:42
(UTC+00:00)

Courier 1B - Pass Details

Date: 10 November 2024
Orbit: 962 x 1208 km, 28.3° (Epoch: 06 December)

Event Time Altitude Azimuth Distance (km) Brightness Sun altitude
Rises 02:10:24 0° 250° (WSW) 3,651 11.9 -20.2°
Reaches altitude 10° 02:13:37 10° 235° (SW) 2,725 10.7 -20.8°
Maximum altitude 02:18:28 22° 187° (S) 2,039 9.3 -21.7°
Enters shadow 02:22:16 14° 148° (SSE) 2,531 9.4 -22.4°
